Flag for Falkland Islands Weather past 2 weeks in Stanley, Falkland Islands

Now
43 °F

Mostly cloudy.


Feels Like: 35 °F
Forecast: 42 / 45 °F
Wind: 16 mph from South

Location: Mount Pleasant Airport

Current Time: Apr 26, 2015 at 3:21:41 AM

Latest Report: Apr 26, 2015 at 2:50 AM


Visibility: N/A

Pressure: 29.59 "Hg

Humidity: 93%

Dew point: 41 °F

Location of StanleyLocation

Historic Weather in Stanley — Graph

°F

Stanley temperature yesterday

Maximum temperature yesterday: 45 °F (at 11:50 AM)
Minimum temperature yesterday: 39 °F (at 12:50 AM)
Average temperature yesterday: 43 °F

Past Weeks' High & Low Weather Summary

 TemperatureHumidityPressure
High59 °F (Apr 11, 2:50 PM)100% (Apr 11, 1:50 AM)30.09 "Hg (Apr 11, 1:50 AM)
Low30 °F (Apr 24, 12:50 AM)48% (Apr 11, 2:50 PM)28.88 "Hg (Apr 19, 12:50 PM)
Average45 °F81%29.56 "Hg
* Reported Apr 11 1:50 AM — Apr 26 1:50 AM, Stanley, Weather by CustomWeather, © 2015

Note: Actual official high and low records may vary slightly from our data, if they occured in-between our weather recording intervals... More about our weather records

Advertising

Stanley weather history for previous 24 hours

 ConditionsComfort  
Time TempWeatherWind HumidityBarometerVisibility
1:50 AM
Sun, Apr 26
43 °FLow clouds.18 mph93%29.53 "HgN/A
12:50 AM43 °FDrizzle. Low clouds.22 mph93%29.47 "Hg2 mi
11:50 PM
Sat, Apr 25
43 °FDrizzle. Low clouds.18 mph100%29.42 "Hg2 mi
10:50 PM43 °FLight rain. Low clouds.16 mph100%29.36 "Hg2 mi
9:50 PM45 °FFog.15 mph93%29.33 "Hg1 mi
8:50 PM45 °FDrizzle. Mostly cloudy.14 mph100%29.33 "Hg1 mi
7:50 PM45 °FDrizzle. Mostly cloudy.12 mph100%29.36 "Hg1 mi
6:50 PM45 °FDrizzle. Mostly cloudy.16 mph100%29.36 "Hg2 mi
5:50 PM45 °FPassing clouds.20 mph100%29.39 "Hg2 mi
4:50 PM45 °FDrizzle. Partly sunny.23 mph100%29.42 "Hg2 mi
3:50 PM45 °FRain. Partly sunny.22 mph100%29.45 "Hg4 mi
2:50 PM45 °FLight rain. Partly sunny.26 mph100%29.50 "HgN/A
1:50 PM45 °FLight rain. Partly sunny.25 mph100%29.53 "HgN/A
12:50 PM45 °FLight rain. Partly sunny.28 mph100%29.59 "Hg4 mi
11:50 AM45 °FRain. Partly sunny.14 mph93%29.65 "Hg4 mi
10:50 AM43 °FLight rain. Partly sunny.18 mph100%29.68 "Hg4 mi
9:50 AM43 °FLight rain. Partly sunny.17 mph93%29.74 "Hg4 mi
8:50 AM43 °FLight rain. Partly sunny.22 mph93%29.74 "HgN/A
7:50 AM43 °FLight rain. Partly cloudy.17 mph81%29.77 "HgN/A
6:50 AM41 °FClear.20 mph81%29.80 "Hg10 mi
5:50 AM43 °FClear.21 mph76%29.83 "Hg10 mi
4:50 AM41 °FClear.21 mph76%29.83 "Hg10 mi
3:50 AM39 °FClear.14 mph81%29.89 "Hg10 mi
Weather by CustomWeather, © 2015

See weather overviewHow to use our weather pages